This is the latest recevied weather packets stored in our database for station/object KW4UJ. If no packets are shown the sender has not sent any weather packets the latest 10 day(s).
| Time | Temp. | Humidity | Pressure | Rain* | Wind** | Luminosity | Snow |
|---|---|---|---|---|---|---|---|
| 1777581321 | 18.33° C | 38% | 1008.7 hPa | 0 mm | - | 186 W/m² | - |
| 1777581016 | 19.44° C | 38% | 1008.4 hPa | 0 mm | - | 105 W/m² | - |
| 1777580715 | 19.44° C | 37% | 1008.4 hPa | 0 mm | - | 542 W/m² | - |
| 1777580412 | 18.89° C | 38% | 1008.5 hPa | 0 mm | - | 237 W/m² | - |
| 1777580108 | 18.89° C | 38% | 1008.3 hPa | 0 mm | - | 161 W/m² | - |
| 1777579804 | 19.44° C | 36% | 1008.4 hPa | 0 mm | - | 121 W/m² | - |
| 1777579502 | 19.44° C | 37% | 1008.2 hPa | 0 mm | - | 596 W/m² | - |
| 1777579197 | 20° C | 36% | 1008.4 hPa | 0 mm | - | 107 W/m² | - |
| 1777578892 | 20° C | 38% | 1008.3 hPa | 0 mm | - | 562 W/m² | - |
| 1777578583 | 20° C | 36% | 1008.2 hPa | 0 mm | - | 136 W/m² | - |
| 1777578283 | 19.44° C | 39% | 1008.1 hPa | 0 mm | - | 596 W/m² | - |
| 1777577979 | 18.89° C | 38% | 1008.1 hPa | 0 mm | - | 288 W/m² | - |
| 1777577674 | 18.89° C | 38% | 1008.1 hPa | 0 mm | - | 165 W/m² | - |
| 1777577372 | 18.89° C | 38% | 1008.2 hPa | 0 mm | - | 183 W/m² | - |
| 1777577067 | 18.89° C | 38% | 1008.2 hPa | 0 mm | - | 464 W/m² | - |
| 1777576765 | 19.44° C | 39% | 1008.1 hPa | 0 mm | - | 134 W/m² | - |
| 1777576464 | 20° C | 37% | 1008.4 hPa | 0 mm | - | 631 W/m² | - |
| 1777576161 | 18.89° C | 38% | 1008.1 hPa | 0 mm | - | 668 W/m² | - |
| 1777575855 | 19.44° C | 40% | 1008 hPa | 0 mm | - | 145 W/m² | - |
| 1777575552 | 19.44° C | 40% | 1008.1 hPa | 0 mm | - | 745 W/m² | - |
| 1777575248 | 19.44° C | 40% | 1008.3 hPa | 0 mm | - | 714 W/m² | - |
| 1777574944 | 20° C | 39% | 1008.2 hPa | 0 mm | - | 113 W/m² | - |
| 1777574641 | 19.44° C | 39% | 1008.3 hPa | 0 mm | - | 655 W/m² | - |
| 1777574338 | 19.44° C | 39% | 1008.3 hPa | 0 mm | - | 681 W/m² | - |
| 1777574038 | 20° C | 39% | 1008 hPa | 0 mm | - | 116 W/m² | - |
* Rain latest hour (hover to see other rain measurements)
** Current wind speed in m/s (hover to see current wind gust speed)